WC4PEM-15 Weather Reports


time (UTC)temp
F
wind
direction
speed
knots
gust
knots
rain 1hr
in
rain 24hr
in
rain mn
in
humidity
%
barometer
mb
20260510134440 78 203 5.2 7.8 0.00 0.00 0.00 85 1016.4
20260510134008 77 230 3.5 6.1 0.00 0.00 0.00 87 1016.4
20260510133940 78 208 4.3 7.0 0.00 0.00 0.00 86 1016.5
20260510133440 77 230 3.5 6.1 0.00 0.00 0.00 87 1016.4
20260510133255 77 219 3.5 5.2 0.00 0.00 0.00 87 1016.3
20260510132940 77 219 3.5 5.2 0.00 0.00 0.00 87 1016.3
20260510132658 77 225 3.5 4.3 0.00 0.00 0.00 88 1016.5
20260510132440 77 225 3.5 4.3 0.00 0.00 0.00 88 1016.5
20260510132054 77 211 3.5 5.2 0.00 0.00 0.00 88 1016.2
20260510131940 77 211 3.5 5.2 0.00 0.00 0.00 88 1016.2
20260510131638 76 213 2.6 3.5 0.00 0.00 0.00 88 1016.2
20260510131440 76 213 2.6 3.5 0.00 0.00 0.00 88 1016.2
20260510131121 76 215 2.6 3.5 0.00 0.00 0.00 88 1016.3
20260510130940 76 215 2.6 3.5 0.00 0.00 0.00 88 1016.3
20260510130652 76 225 2.6 4.3 0.00 0.00 0.00 88 1016.3
20260510130440 76 225 2.6 4.3 0.00 0.00 0.00 88 1016.3
20260510130031 76 225 1.7 4.3 0.00 0.00 0.00 89 1016.2
20260510125940 76 225 1.7 4.3 0.00 0.00 0.00 89 1016.2
20260510125720 76 187 1.7 4.3 0.00 0.00 0.00 90 1016.3
20260510125440 76 187 1.7 4.3 0.00 0.00 0.00 90 1016.3
20260510125049 75 205 1.7 4.3 0.00 0.00 0.00 91 1016.4
20260510124940 75 205 1.7 4.3 0.00 0.00 0.00 91 1016.4
20260510124617 75 0 0.9 2.6 0.00 0.00 0.00 92 1016.2